Temp
71 70 71 72 71 72 73 75 76 76 76 76 76 77 76 76 77 77 77 77 74 73
71 71 71 72 72 72 74 76 76 76 76 76 76 76 76 75 76 77 76 76 76 75
71 71 72 72 72 72 74 74 75 75 76 75 76 76 75 75 76 76 76 77 76 76
72 72 72 71 72 73 74 74 74 74 75 75 75 76 75 74 75 75 75 76 76 76
73 73 73 73 73 74 73 75 75 75 74 75 76 75 75 75 77 75 75 76 75 76
72 72 73 73 74 74 74 74 74 74 74 74 75 75 75 75 75 76 76 76 75 76
71 72 72 73 73 73 74 74 75 74 74 73 74 75 76 76 75 75 76 76 76 76
72 73 73 73 73 74 74 73 74 74 74 74 75 76 75 75 75 75 75 75 76 76
71 71 72 72 72 73 73 73 73 73 74 73 71 64 65 68 71 72 73 73 75 74
70 70 70 70 71 70 70 71 69 70 70 68 67 62 62 65 68 70 72 73 73 73
68 68 68 69 70 70 70 70 68 67 67 66 63 60 60 62 65 67 70 70 71 72
68 67 67 67 69 69 68 68 65 64 64 63 61 57 58 61 65 68 65 65 65 65
68 67 67 68 68 68 67 65 60 58 57 58 59 56 57 60 68 64 62 62 62 60
67 67 67 67 66 64 62 59 58 56 57 56 57 57 56 58 65 62 62 62 61 61
MSLP
1019.81 1020.03 1020.30 1020.48 1020.82 1020.95 1021.11 1021.08 1021.10 1021.37 1021.46 1021.59 1021.73 1021.65 1021.67 1021.63 1021.75 1021.87 1022.13 1022.28 1022.29 1022.34
1019.73 1019.97 1020.05 1020.19 1020.51 1020.60 1020.69 1020.75 1020.92 1021.12 1021.22 1021.33 1021.47 1021.63 1021.75 1021.88 1021.80 1021.80 1022.09 1022.28 1022.27 1022.24
1019.41 1019.72 1019.94 1020.06 1020.16 1020.17 1020.22 1020.38 1020.56 1020.77 1020.82 1021.08 1021.19 1021.34 1021.59 1021.76 1021.74 1021.87 1021.97 1022.10 1022.13 1022.10
1019.14 1019.44 1019.70 1019.82 1019.89 1019.82 1019.88 1019.95 1020.16 1020.24 1020.53 1020.79 1020.98 1021.05 1021.43 1021.63 1021.78 1021.97 1022.10 1022.09 1022.00 1021.87
1018.76 1019.07 1019.38 1019.60 1019.70 1019.76 1019.72 1019.50 1019.59 1019.84 1020.20 1020.46 1020.68 1020.94 1021.18 1021.36 1021.50 1021.74 1021.91 1021.87 1021.91 1021.74
1018.26 1018.78 1019.08 1019.18 1019.34 1019.49 1019.54 1019.50 1019.56 1019.67 1019.86 1020.20 1020.50 1020.74 1020.92 1021.04 1021.20 1021.27 1021.38 1021.53 1021.65 1021.59
1017.73 1018.28 1018.58 1018.94 1019.32 1019.39 1019.43 1019.46 1019.50 1019.64 1019.88 1020.06 1020.31 1020.67 1020.79 1020.86 1020.96 1020.99 1021.01 1021.07 1021.21 1021.25
1017.45 1017.77 1018.27 1018.63 1019.00 1019.17 1019.25 1019.28 1019.38 1019.54 1019.66 1019.91 1020.24 1020.37 1020.52 1020.70 1020.79 1020.81 1020.80 1020.80 1020.78 1020.64
1017.12 1017.59 1018.03 1018.33 1018.74 1019.00 1019.02 1019.22 1019.41 1019.49 1019.63 1020.02 1020.24 1020.52 1020.54 1020.64 1020.78 1020.82 1020.82 1020.58 1020.58 1020.58
1016.82 1017.38 1017.91 1018.31 1018.57 1019.03 1019.27 1019.24 1019.44 1019.74 1019.82 1020.17 1020.49 1020.58 1020.88 1020.64 1020.61 1020.59 1020.63 1020.46 1020.45 1020.56
1017.17 1017.62 1017.86 1018.16 1018.31 1018.80 1019.12 1019.51 1019.92 1020.21 1020.29 1020.27 1020.59 1020.60 1020.43 1020.78 1020.40 1020.66 1020.57 1020.34 1020.08 1020.64
1016.85 1016.96 1018.06 1018.25 1018.42 1018.58 1019.16 1019.48 1020.15 1020.61 1020.84 1021.03 1021.19 1020.88 1020.15 1020.34 1020.34 1020.46 1020.76 1020.68 1020.80 1020.52
1016.96 1017.58 1017.87 1018.14 1018.28 1018.58 1019.08 1019.61 1020.41 1020.87 1021.02 1021.40 1021.29 1020.75 1020.12 1020.17 1020.64 1020.70 1021.11 1021.24 1021.37 1021.48
1017.02 1017.45 1017.80 1018.00 1018.16 1018.91 1019.36 1020.12 1020.81 1021.20 1021.46 1021.71 1021.50 1021.07 1020.68 1020.46 1020.62 1020.92 1021.65 1021.78 1021.66 1021.74
Wind_Speed
6 5 4 5 4 4 4 3 3 4 4 4 3 3 2 1 1 2 2 2 2 2
5 6 6 6 4 4 4 4 5 5 5 5 5 4 3 2 3 1 1 3 2 1
7 6 5 4 6 6 5 5 5 5 5 5 5 4 4 3 2 3 2 2 2 1
7 6 5 5 5 6 4 6 5 6 6 7 7 5 4 4 4 4 3 3 4 4
6 6 5 5 6 5 6 5 5 4 5 6 6 5 6 6 5 5 5 5 4 5
7 6 6 6 4 4 5 5 4 4 6 6 7 6 6 6 6 6 5 4 5 5
10 8 8 5 5 5 5 5 4 4 4 4 5 5 5 6 5 5 5 5 5 6
8 7 5 5 5 5 5 5 5 4 4 5 4 3 5 5 5 5 5 5 6 5
8 6 6 6 4 3 4 4 4 4 4 3 3 4 3 2 4 4 6 5 5 4
6 6 6 5 5 3 3 3 4 3 4 5 5 3 6 4 3 3 5 5 4 5
4 4 4 5 4 4 2 2 2 1 2 4 3 1 3 7 2 4 4 2 2 4
4 5 5 4 4 3 2 3 3 2 3 2 3 7 3 2 2 2 2 4 4 5
4 5 6 6 5 3 3 5 4 4 5 6 2 9 9 3 4 4 3 4 4 8
5 4 5 4 3 4 6 6 5 5 4 3 6 6 8 4 3 5 4 2 3 4
Wind_Direction
178 174 186 189 181 190 199 204 189 204 208 221 221 236 174 167 173 128 150 224 208 158
185 187 193 199 198 205 191 204 205 199 208 206 208 211 203 204 218 177 234 264 289 220
196 200 206 188 212 204 206 205 205 205 202 204 210 197 196 208 238 201 219 226 251 256
189 198 191 201 214 215 192 200 212 213 201 198 196 201 201 214 220 227 236 231 233 257
180 187 198 207 213 215 221 225 215 211 216 205 198 192 205 213 209 213 227 239 233 246
181 187 207 217 226 216 219 224 233 214 197 199 205 203 213 213 212 213 212 226 232 252
185 195 194 199 202 214 223 225 230 215 234 217 203 211 213 213 224 236 234 224 217 239
189 179 179 176 199 212 213 223 212 206 212 217 220 218 214 217 227 229 241 258 261 246
158 160 175 164 167 178 213 208 202 200 184 168 105 71 31 283 230 249 259 255 257 223
149 153 140 142 149 167 192 183 195 202 143 130 124 20 319 289 271 254 244 252 262 214
125 130 150 172 169 178 161 145 155 213 186 140 126 328 0 294 233 270 282 326 44 238
146 164 180 187 185 159 166 116 82 75 46 41 6 343 68 330 257 224 69 50 42 80
162 178 179 191 164 124 127 109 118 95 82 17 346 359 350 242 182 133 120 89 73 61
133 164 157 156 116 110 106 108 107 102 89 71 23 1 359 113 122 127 119 81 55 33